Tracking 20942 objects as of 14-Jul-2020
HD Live streaming from Space Station
objects crossing your sky now

COSMOS 510

Track COSMOS 510 now!
10-day predictions
COSMOS 510 is classified as:


NORAD ID: 6123
Int'l Code: 1972-057G
Perigee: 1,502.1 km
Apogee: 1,516.6 km
Inclination: 74.0 °
Period: 116.0 minutes
Semi major axis: 7880 km
RCS: 0.6741 m2 (medium)
Launch date: July 20, 1972
Source: Commonwealth of Independent States (former USSR) (CIS)
Launch site: PLESETSK MISSILE AND SPACE COMPLEX (PKMTR)
aabbcc
Your satellite tracking list
Your tracking list is empty




NASA's NSSDC Master Catalog

Two Line Element Set (TLE):
1  6123U 72057G   20196.46323999  .00000001  00000-0  12032-3 0  9998
2  6123  74.0289 359.5530 0009253 273.0137 116.6831 12.41037779174072
Source of the keplerian elements: AFSPC